Miscellaneous Local Product
Issued by NWS Hastings, NE

Home | Current Version | Previous Version | Graphics & Text | Print | Product List | Glossary On
Versions: 1 2 3 4 5 6 7 8 9 10 11 12 13 14 15 16 17 18 19 20 21 22 23 24 25 26 27 28 29 30 31 32 33 34 35 36 37 38 39 40 41 42 43 44 45 46 47 48 49 50
544
AXUS43 KGID 211002
MISGRI

GID CWA HOURLY WEATHER ROUNDUP
NATIONAL WEATHER SERVICE HASTINGS NE
500 AM CDT MON AUG 21 2017

NOTE: "FAIR" INDICATES FEW OR NO CLOUDS BELOW 12,000 FEET WITH NO
SIGNIFICANT WEATHER AND/OR OBSTRUCTIONS TO VISIBILITY.

...SOUTH CENTRAL NEBRASKA...

CITY           SKY/WX    TMP DP  RH WIND       PRES   REMARKS
GRAND ISLAND   CLEAR     71  69  93 S5        29.93S
HASTINGS       CLEAR     72  67  84 S5        29.95R
KEARNEY        CLEAR     70  66  87 S3        29.94R
ORD            CLOUDY    68  65  90 CALM      29.92R
YORK           PTCLDY    73  70  88 SW5       29.92S
AURORA         CLEAR     72  70  93 SW6       29.93R
LEXINGTON      FOG       67  66  95 CALM      29.93F VSB 1/4
HOLDREGE       CLEAR     69  64  82 SW6       29.94R
HEBRON         CLEAR     76  68  76 S9        29.95R

...NEBRASKA PANHANDLE...

CITY           SKY/WX    TMP DP  RH WIND       PRES   REMARKS
CHADRON        CLOUDY    70  66  87 SW8       29.95F
ALLIANCE       FOG       67  67 100 S6        30.00F VSB 1/2
SCOTTSBLUFF    CLEAR     64  61  90 E6        30.01F FOG
SIDNEY         FOG       63  63 100 NW5       30.03F VSB 1/4

...WESTERN AND NORTH CENTRAL NEBRASKA...

CITY           SKY/WX    TMP DP  RH WIND       PRES   REMARKS
VALENTINE      FOG       65  61  87 CALM      29.96F VSB 1/2
AINSWORTH      CLOUDY    68  68 100 CALM      29.97S FOG
ONEILL         CLOUDY    68  68 100 NE5       29.96R FOG
BROKEN BOW     FOG       70  69  97 NW3       29.93S VSB 1/2
IMPERIAL       CLEAR     64  61  90 CALM      29.97S
NORTH PLATTE   FOG       72  71  97 E5        29.94F VSB 1/4
MCCOOK         CLEAR     71  64  78 SW7       29.93F

...EASTERN NEBRASKA...

CITY           SKY/WX    TMP DP  RH WIND       PRES   REMARKS
NORFOLK        CLEAR     68  66  93 SE16      29.95S
SO SIOUX CITY  CLOUDY    68  66  93 SE9       29.99R
TEKAMAH        CLOUDY    71  62  73 SE12G21   29.99R
COLUMBUS       CLEAR     71  70  96 E9        29.96R
ALBION         CLOUDY    69  68  96 E8        29.94R
OMAHA EPPLEY   CLOUDY    72  64  76 E28G33    30.00F
OFFUTT AFB     CLOUDY    70  64  81 NE9       30.01R
MILLARD        CLOUDY    73  65  76 E7        30.00S
LINCOLN        CLOUDY    77  71  82 E12       29.96R
NEBRASKA CITY  PTCLDY    69  69  99 NE9G16    30.01R
BEATRICE       CLEAR     78  71  77 SW9       29.95R
FALLS CITY     CLEAR     75  72  90 SE6       29.96R

...NORTHERN KANSAS...

CITY           SKY/WX    TMP DP  RH WIND       PRES   REMARKS
GOODLAND       PTCLDY    65  63  93 S10       29.99F
HILL CITY      PTCLDY    76  66  71 S14G20    29.96S
NORTON         SUNNY     73  61  64 S9        29.94
PHILLIPSBURG   CLEAR     79  64  61 S9        29.95R
SMITH CENTER   PTCLDY    73  64  73 S10       29.96R
HAYS           PTCLDY    77  65  66 S22G33    29.98S
RUSSELL        PTCLDY    76  63  64 S18G28    29.97S
CONCORDIA      CLEAR     77  68  73 S15       29.95R
SALINA         CLOUDY    79  67  66 S12       29.97R
TOPEKA         CLEAR     76  74  93 S3        29.98R



USA.gov is the U.S. government's official web portal to all federal, state and local government web resources and services.